Location: *
(47.6569°N, 7.4256°E)
Time: 00:43:41
(UTC+00:00)

Cosmos 921 Rocket - Pass Details

Date: 14 December 2019
Orbit: 572 x 632 km, 75.8° (Epoch: 20 January)

Event Time Altitude Azimuth Distance (km) Brightness Sun altitude
Rises 17:17:12 0° 336° (NNW) 2,828 6.5 -15.7°
Reaches altitude 10° 17:19:26 10° 332° (NNW) 1,932 5.7 -16.1°
Maximum altitude 17:23:38 55° 255° (WSW) 722 3.7 -16.7°
Drops below altitude 10° 17:27:54 10° 178° (S) 1,954 5.8 -17.4°
Sets 17:30:10 0° 174° (S) 2,863 6.6 -17.8°
